[[{"header":{"parameterUnit":"m.s-1","parameterCategory":1,"la1":30.2991,"la2":30.254,"lo1":-89.0895,"lo2":-89.0444,"dy":0.0017,"dx":0.0017,"nx":28,"ny":28,"refTime":"2024-03-09T03:00:00:Z","depth":0,"parameterNumber":2,"parameterNumberName":"U-component_of_WINDS"},"data":[0,0,0,0,0,0,0,0,0,0,0,0,0,0,0,0,0,0,0,0,0,0,0,0,0,0,0,0,0,0,0,0,0,0,0,0,0,0,0,0,0,0,0,0,0,0,0,0,0,0,0,0,0,0,0,0,0,0,2.395,2.395,0,2.4004,2.4004,2.4005,2.4001,2.4,2.4,2.3999,2.4053,2.4055,2.4057,0,0,0,0,0,0,0,0,0,0,0,0,0,2.3843,2.3845,2.395,2.395,2.3951,2.4004,2.4005,2.4005,2.4001,2.4,2.3999,2.3998,2.4052,2.4055,2.4058,0,0,0,0,0,0,0,0,0,0,0,0,0,2.3893,2.3846,2.395,2.3955,2.3956,2.4004,2.4005,2.4005,2.4001,2.4,2.3999,2.3998,2.4052,2.4055,2.4058,2.4103,0,0,2.4068,2.407,0,0,0,0,0,0,0,0,2.389,2.3897,2.3954,2.3955,2.3956,2.3995,2.3987,2.4038,2.4002,2.3984,2.3999,2.3997,2.4035,2.4039,2.4052,2.4105,2.4107,2.4068,2.407,2.4072,2.4073,0,0,0,0,0,0,0,2.3887,2.3894,2.3971,2.3955,2.3956,2.3956,2.3961,2.3997,2.4016,2.3986,2.3986,2.3992,2.4035,2.4049,2.4053,2.4108,2.4068,2.4071,2.4073,2.4075,2.4203,2.4204,0,0,0,0,0,0,2.3882,2.3891,2.3969,2.3973,2.392,2.3958,2.3965,2.3983,2.4015,2.4019,2.3993,2.3992,2.4044,2.4049,2.4055,2.4111,2.4072,2.4075,2.4077,2.4201,2.4203,2.4205,0,0,0,0,0,0,2.388,2.3889,2.3967,2.3932,2.3942,2.3962,2.3983,2.3985,2.3999,2.4021,2.4024,2.4004,2.4043,2.405,2.4091,2.4112,2.4076,2.4079,2.42,2.4202,2.4204,2.4221,0,0,0,0,0,0,2.3877,2.3888,2.3905,2.3933,2.3944,2.4002,2.3984,2.3987,2.4005,2.4004,2.4032,2.4035,2.4043,2.4086,2.4095,2.4116,2.4082,2.4198,2.4201,2.4203,2.4219,2.4223,2.4228,0,0,0,0,0,2.3873,2.3907,2.3906,2.3915,2.3965,2.4003,2.401,2.4018,2.4006,2.4024,2.4038,2.4034,2.4109,2.4091,2.41,2.4123,2.4197,2.42,2.4203,2.4217,2.4222,2.4227,0,0,0,0,0,0,2.388,2.391,2.3909,2.3953,2.3976,2.4003,2.4025,2.4024,2.405,2.4048,2.4057,2.4063,2.4105,2.4118,2.4097,2.4169,2.4151,2.4156,2.4158,2.4164,2.4169,2.4164,2.4085,0,0,0,0,0,2.3887,2.3915,2.394,2.3977,2.3988,2.4005,2.4021,2.4026,2.405,2.4059,2.4076,2.4099,2.4128,2.4147,2.4175,2.4221,2.4227,2.4241,2.4246,2.4249,2.4254,2.4281,2.4287,2.4215,2.4215,2.4215,0,0,2.3901,2.3921,2.3938,2.3979,2.3997,2.4027,2.4013,2.4044,2.4066,2.4064,2.4104,2.4118,2.4144,2.4188,2.4209,2.42,2.4275,2.4253,2.4256,2.4258,2.4285,2.4292,2.4298,2.4217,2.4217,2.4217,0,0,2.3942,2.396,2.3993,2.4012,2.404,2.4051,2.4059,2.4086,2.4096,2.4136,2.4136,2.4162,2.4211,2.4231,2.4247,2.4298,2.4296,2.4307,2.433,2.4356,2.4362,2.4367,2.4386,2.4393,2.4311,2.4311,2.4311,0,2.3955,2.4,2.401,2.4042,2.406,2.4061,2.4095,2.4113,2.4148,2.4161,2.4152,2.4215,2.4233,2.4282,2.4295,2.4308,2.4318,2.4303,2.4361,2.4366,2.4371,2.4389,2.4396,2.4313,2.4312,2.4312,2.4312,0,2.4016,2.4048,2.4071,2.4107,2.4128,2.4161,2.4176,2.4196,2.42,2.4212,2.4254,2.4276,2.4309,2.4321,2.4324,2.4372,2.4366,2.4359,2.4341,2.4379,2.4396,2.4403,2.4314,2.4314,2.4313,2.4313,0,0,2.4062,2.4104,2.4112,2.4129,2.4161,2.4185,2.4219,2.4252,2.427,2.4295,2.4324,2.4367,2.4361,2.438,2.4385,2.4409,2.4449,2.4399,2.4399,2.4408,2.4504,2.451,2.4518,2.4448,2.445,2.4451,2.4502,0,2.4106,2.4166,2.4177,2.423,2.4259,2.4261,2.4291,2.4314,2.4327,2.4355,2.4369,2.44,2.4389,2.4401,2.4424,2.4439,2.4469,2.4436,2.4476,2.4477,2.4469,2.4527,2.4532,2.458,2.4509,2.451,2.4511,0,2.4166,2.4194,2.425,2.428,2.4293,2.4319,2.4351,2.4377,2.4404,2.4412,2.4434,2.4438,2.4474,2.4456,2.4506,2.4484,2.4501,2.4511,2.4514,2.4517,2.4496,2.4533,2.4595,2.4602,2.4522,2.4521,2.452,0,2.4194,2.4246,2.4286,2.4301,2.4336,2.4355,2.4371,2.4397,2.4417,2.4445,2.4458,2.449,2.4508,2.4533,2.4545,2.453,2.4595,2.4577,2.4603,2.4603,2.4616,2.4615,2.4683,2.4627,2.4627,2.4627,2.4627,0,2.4243,2.4277,2.43,2.4325,2.4364,2.4376,2.4415,2.443,2.4454,2.4482,2.4486,2.4513,2.4528,2.4557,2.4567,2.4608,2.4615,2.4623,2.4626,2.4623,2.4622,2.4634,2.4631,2.4629,2.4628,2.4628,2.4628,0,2.4281,2.4297,2.4342,2.4373,2.4382,2.4409,2.4436,2.4461,2.4475,2.4511,2.452,2.4542,2.4576,2.4592,2.4634,2.4641,2.4688,2.4688,2.4679,2.468,2.4705,2.4703,2.4783,2.4794,2.4731,2.4731,2.4732,0,2.4311,2.4337,2.4372,2.4392,2.4408,2.444,2.4461,2.4475,2.4496,2.453,2.4551,2.4586,2.4615,2.4671,2.469,2.4723,2.4724,2.475,2.4729,2.4726,2.4725,2.4724,2.4727,2.4754,2.4754,2.4755,2.4755,0,2.4362,2.437,2.44,2.4434,2.4459,2.4485,2.4512,2.4528,2.4546,2.457,2.4606,2.4629,2.4673,2.4708,2.4743,2.476,2.4761,2.4762,2.477,2.4767,2.4761,2.4766,2.469,2.476,2.4759,2.4759,2.4759,2.4759,2.4398,2.4422,2.4451,2.4485,2.4507,2.4532,2.4557,2.4575,2.4605,2.4643,2.4649,2.4688,2.4717,2.4764,2.4782,2.4813,2.4806,2.4817,2.482,2.4823,2.4825,2.4757,2.4819,2.4819,2.4819,2.4819,2.4819,0,2.445,2.4469,2.45,2.4538,2.4565,2.4565,2.4595,2.4617,2.4651,2.4678,2.4707,2.4749,2.4784,2.4807,2.4843,2.4863,2.4865,2.4872,2.4871,2.4875,2.4828,2.4818,2.487,2.487,2.487,2.487,2.487,2.487,2.4481,2.4523,2.4534,2.4587,2.4606,2.4645,2.4662,2.4686,2.4707,2.4754,2.4784,2.4799,2.4825,2.4862,2.4895,2.4901,2.4914,2.4921,2.4927,2.4883,2.4878,2.4873,2.4863,2.4924,2.4924,2.4971,2.4972,2.4972]},{"header":{"parameterUnit":"m.s-1","parameterCategory":1,"la1":30.2991,"la2":30.254,"lo1":-89.0895,"lo2":-89.0444,"dy":0.0017,"dx":0.0017,"nx":28,"ny":28,"refTime":"2024-03-09T03:00:00:Z","depth":0,"parameterNumber":3,"parameterNumberName":"V-component_of_WINDS"},"data":[0,0,0,0,0,0,0,0,0,0,0,0,0,0,0,0,0,0,0,0,0,0,0,0,0,0,0,0,0,0,0,0,0,0,0,0,0,0,0,0,0,0,0,0,0,0,0,0,0,0,0,0,0,0,0,0,0,0,-5.5116,-5.5116,0,-5.5143,-5.5143,-5.5144,-5.5104,-5.5102,-5.5101,-5.51,-5.5126,-5.5128,-5.513,0,0,0,0,0,0,0,0,0,0,0,0,0,-5.5028,-5.503,-5.5116,-5.5116,-5.5117,-5.5143,-5.5143,-5.5144,-5.5104,-5.5102,-5.5101,-5.5099,-5.5125,-5.5128,-5.513,0,0,0,0,0,0,0,0,0,0,0,0,0,-5.5062,-5.503,-5.5116,-5.51,-5.5099,-5.5143,-5.5143,-5.5144,-5.5104,-5.5102,-5.51,-5.5098,-5.5125,-5.5128,-5.513,-5.5191,0,0,-5.514,-5.5141,0,0,0,0,0,0,0,0,-5.506,-5.5065,-5.5102,-5.5101,-5.51,-5.5118,-5.5122,-5.516,-5.5105,-5.5102,-5.51,-5.5097,-5.5125,-5.5128,-5.5137,-5.5192,-5.5193,-5.514,-5.5142,-5.5143,-5.5144,0,0,0,0,0,0,0,-5.5058,-5.5064,-5.5127,-5.5102,-5.5101,-5.5091,-5.5093,-5.5129,-5.5125,-5.5102,-5.5099,-5.5103,-5.5124,-5.5135,-5.5138,-5.5194,-5.514,-5.5143,-5.5144,-5.5146,-5.53,-5.5302,0,0,0,0,0,0,-5.5057,-5.5062,-5.5126,-5.5127,-5.5074,-5.5094,-5.5097,-5.5114,-5.5124,-5.5124,-5.5105,-5.5101,-5.5131,-5.5134,-5.5139,-5.521,-5.5143,-5.5146,-5.5148,-5.5298,-5.53,-5.5303,0,0,0,0,0,0,-5.5056,-5.5063,-5.5125,-5.5094,-5.5101,-5.5098,-5.5118,-5.5116,-5.5127,-5.5127,-5.5126,-5.5117,-5.5129,-5.5134,-5.5178,-5.5211,-5.5147,-5.515,-5.5295,-5.5299,-5.5302,-5.5354,0,0,0,0,0,0,-5.5053,-5.5063,-5.5086,-5.5095,-5.5103,-5.5165,-5.512,-5.5118,-5.5132,-5.5127,-5.5137,-5.5137,-5.5128,-5.5174,-5.5181,-5.5214,-5.5152,-5.5292,-5.5297,-5.5301,-5.535,-5.5359,-5.5367,0,0,0,0,0,-5.505,-5.51,-5.5088,-5.5096,-5.5132,-5.5167,-5.5171,-5.516,-5.5135,-5.5158,-5.5158,-5.5137,-5.5206,-5.5179,-5.5187,-5.522,-5.529,-5.5295,-5.53,-5.5346,-5.5357,-5.5367,0,0,0,0,0,0,-5.5094,-5.51,-5.5087,-5.5141,-5.5154,-5.516,-5.5189,-5.5172,-5.5192,-5.5187,-5.5172,-5.5174,-5.5222,-5.5225,-5.5195,-5.528,-5.5244,-5.5251,-5.5276,-5.5287,-5.5295,-5.5293,-5.5155,0,0,0,0,0,-5.511,-5.5138,-5.5142,-5.5189,-5.5196,-5.5192,-5.5206,-5.5197,-5.5209,-5.5214,-5.5217,-5.523,-5.5254,-5.5271,-5.5293,-5.535,-5.5352,-5.5377,-5.5386,-5.5393,-5.5399,-5.543,-5.5441,-5.532,-5.532,-5.532,0,0,-5.5143,-5.515,-5.5169,-5.5198,-5.5207,-5.5236,-5.5196,-5.5229,-5.525,-5.5219,-5.5261,-5.5264,-5.5276,-5.5328,-5.535,-5.5332,-5.5433,-5.54,-5.5405,-5.5408,-5.5436,-5.5448,-5.5458,-5.5323,-5.5323,-5.5322,0,0,-5.5219,-5.5227,-5.5267,-5.5277,-5.5291,-5.5288,-5.5297,-5.5306,-5.5307,-5.535,-5.5327,-5.5352,-5.5394,-5.5404,-5.5415,-5.5495,-5.5476,-5.5503,-5.5549,-5.5579,-5.5588,-5.5597,-5.5625,-5.5636,-5.5509,-5.5509,-5.5509,0,-5.5258,-5.5302,-5.529,-5.5324,-5.5338,-5.5311,-5.5352,-5.5362,-5.5382,-5.5392,-5.5372,-5.5425,-5.5432,-5.5485,-5.5504,-5.5514,-5.5524,-5.5502,-5.5588,-5.5596,-5.5604,-5.5631,-5.5642,-5.5513,-5.5512,-5.5512,-5.5512,0,-5.5349,-5.538,-5.5411,-5.5432,-5.5449,-5.5486,-5.548,-5.5498,-5.5487,-5.5486,-5.5529,-5.5537,-5.556,-5.5572,-5.5562,-5.5624,-5.5613,-5.5591,-5.5554,-5.5619,-5.5644,-5.5654,-5.5517,-5.5516,-5.5515,-5.5514,0,0,-5.5453,-5.5468,-5.5479,-5.5489,-5.5503,-5.5526,-5.5562,-5.5586,-5.5602,-5.5617,-5.5647,-5.5684,-5.5664,-5.5676,-5.5666,-5.5693,-5.5756,-5.5667,-5.5667,-5.5683,-5.5825,-5.5842,-5.5854,-5.5744,-5.5745,-5.5747,-5.5824,0,-5.5528,-5.5591,-5.5582,-5.5642,-5.567,-5.5646,-5.5677,-5.5689,-5.5689,-5.5713,-5.5712,-5.5739,-5.571,-5.5717,-5.5743,-5.5743,-5.5784,-5.5737,-5.5771,-5.5772,-5.5768,-5.5867,-5.5884,-5.5957,-5.5834,-5.5835,-5.5837,0,-5.5624,-5.5644,-5.5708,-5.5718,-5.5729,-5.5757,-5.5779,-5.5802,-5.5815,-5.5813,-5.5827,-5.5813,-5.5848,-5.5812,-5.586,-5.5829,-5.5842,-5.5844,-5.5847,-5.5849,-5.5808,-5.5872,-5.598,-5.5991,-5.5852,-5.5851,-5.585,0,-5.5693,-5.5736,-5.5779,-5.5788,-5.5801,-5.5822,-5.5828,-5.5838,-5.5854,-5.5872,-5.5882,-5.5904,-5.5916,-5.5934,-5.5926,-5.59,-5.5976,-5.5939,-5.5975,-5.5976,-5.5992,-5.5991,-5.6103,-5.6001,-5.6001,-5.6001,-5.6,0,-5.5779,-5.5818,-5.5811,-5.5837,-5.5881,-5.587,-5.5914,-5.5917,-5.5927,-5.5953,-5.5934,-5.5959,-5.5947,-5.5972,-5.5965,-5.6007,-5.6013,-5.6012,-5.601,-5.6014,-5.6014,-5.6022,-5.6016,-5.6004,-5.6003,-5.6002,-5.6002,0,-5.5863,-5.5859,-5.5905,-5.5914,-5.5917,-5.5949,-5.5956,-5.5981,-5.598,-5.6014,-5.6021,-5.6019,-5.6047,-5.6041,-5.6071,-5.6067,-5.6119,-5.6111,-5.6115,-5.6113,-5.615,-5.6147,-5.6271,-5.6287,-5.6175,-5.6176,-5.6177,0,-5.5918,-5.5948,-5.596,-5.5977,-5.5985,-5.6012,-5.6028,-5.6018,-5.6035,-5.6052,-5.6075,-5.6101,-5.6122,-5.6167,-5.6168,-5.6191,-5.6183,-5.6225,-5.6186,-5.6189,-5.6184,-5.6182,-5.6185,-5.6233,-5.6234,-5.6235,-5.6236,0,-5.6015,-5.6012,-5.6035,-5.6059,-5.6078,-5.6096,-5.6111,-5.6126,-5.6117,-5.6137,-5.6166,-5.6182,-5.6214,-5.624,-5.6261,-5.6267,-5.625,-5.6248,-5.6258,-5.6262,-5.6263,-5.6263,-5.6136,-5.6245,-5.6244,-5.6244,-5.6243,-5.6243,-5.6086,-5.6112,-5.6125,-5.6152,-5.6163,-5.6178,-5.6202,-5.6204,-5.6228,-5.6253,-5.6246,-5.6278,-5.629,-5.6318,-5.6326,-5.6351,-5.6335,-5.6349,-5.6353,-5.6357,-5.6361,-5.626,-5.6355,-5.6355,-5.6355,-5.6354,-5.6354,0,-5.6182,-5.6189,-5.6214,-5.6237,-5.6259,-5.6242,-5.6258,-5.6277,-5.6306,-5.6319,-5.634,-5.6373,-5.6399,-5.6402,-5.6426,-5.6445,-5.6438,-5.6452,-5.645,-5.6452,-5.6374,-5.6363,-5.6457,-5.6457,-5.6457,-5.6457,-5.6457,-5.6457,-5.6234,-5.6277,-5.6276,-5.6324,-5.6331,-5.6363,-5.6374,-5.6388,-5.6399,-5.6437,-5.6458,-5.646,-5.6469,-5.6494,-5.6517,-5.6517,-5.6526,-5.6543,-5.654,-5.6468,-5.6457,-5.6447,-5.6437,-5.6545,-5.6546,-5.6616,-5.6617,-5.6617]}]]